Regional Weather Roundup
Issued by NWS

Home | Current Version | Previous Version | Text Only | Print | Product List | Glossary Off
Versions: 1 2 3 4 5 6 7 8 9 10 11 12 13 14 15 16 17 18 19 20 21 22 23 24 25 26 27 28 29 30 31 32 33 34 35 36 37 38 39 40 41 42 43 44 45 46 47 48 49 50

000
ASUS43 KLMK 041602
RWRKY
KENTUCKY REGIONAL WEATHER ROUNDUP
NATIONAL WEATHER SERVICE LOUISVILLE KY
1200 PM EDT MON MAY 04 2015

NOTE "FAIR" INDICATES FEW OR NO CLOUDS BELOW 12,000 FEET
WITH NO SIGNIFICANT WEATHER AND/OR OBSTRUCTIONS TO VISIBILITY.

KYZ001>023-026-027-061>063-070>075-041700-
WESTERN AND SOUTH CENTRAL KENTUCKY

CITY           SKY/WX    TMP DP  RH WIND       PRES   REMARKS
PADUCAH        MOSUNNY   79  59  50 SW9       30.19S
HENDERSON      MOSUNNY   79  55  44 SW12      30.18R
OWENSBORO      PTSUNNY   76  60  57 SW9       30.21R
HOPKINSVILLE   MOSUNNY   76  59  55 W9        30.23R
BOWLING GREEN  CLOUDY    77  55  46 SW10      30.25R
GLASGOW        NOT AVBL
$$

KYZ024-025-028>034-038-045-046-053-041700-
NORTH CENTRAL KENTUCKY

CITY           SKY/WX    TMP DP  RH WIND       PRES   REMARKS
LOUISVILLE/SDF PTSUNNY   78  54  43 SW14G21   30.21R
LOUISVILLE/LOU PTSUNNY   77  54  44 SW13      30.21S
FORT KNOX      PTSUNNY   78  56  47 S12       30.21S
$$

KYZ035>037-039>044-047>052-055>060-089>105-041700-
NORTHEAST KENTUCKY

CITY           SKY/WX    TMP DP  RH WIND       PRES   REMARKS
LEXINGTON      SUNNY     76  55  48 SW12      30.25R
COVINGTON      PTSUNNY   77  54  44 SW9G17    30.20S
FRANKFORT      PTSUNNY   75  52  44 SW14      30.23R
$$

KYZ054-064>069-076>088-106>120-041700-
SOUTHEAST KENTUCKY

CITY           SKY/WX    TMP DP  RH WIND       PRES   REMARKS
JACKSON        SUNNY     77  50  38 VRB3      30.29S
LONDON         SUNNY     78  47  33 W10       30.29S
SOMERSET       NOT AVBL
MIDDLESBORO    MOSUNNY   76  52  43 S8        30.31S
MONTICELLO     SUNNY     78  54  43 SW12      30.32R
$$




USA.gov is the U.S. government's official web portal to all federal, state and local government web resources and services.